Location: Casco Millpond
(44.5581°N, 87.6111°W)
Time: 20:47:59
(UTC+00:00)

Cosmos 1140 Rocket - Pass Details

Date: 16 January 2026
Orbit: 739 x 763 km, 74.1° (Epoch: 10 February)

Event Time Altitude Azimuth Distance (km) Brightness Sun altitude
Rises 12:31:59 0° 228° (SW) 3,163 6.4 -9.1°
Reaches altitude 10° 12:34:34 10° 239° (WSW) 2,246 5.6 -8.7°
Maximum altitude 12:39:03 31° 301° (WNW) 1,299 4.2 -7.9°
Drops below altitude 10° 12:43:35 10° 3° (N) 2,268 5.8 -7.2°
Sets 12:46:13 0° 14° (NNE) 3,200 6.6 -6.7°
